Date_Time,Julian_Date,Latitude,Longitude,Instrument_Depth,U,V,Speed,Direction
(yyyy-mm-dd hh:mn:ss UTC),(JD),(+ deg. North),(+ deg. East),(m),(cm/s),(cm/s),(cm/s),(deg True)
1993-03-17 18:29:00 UTC,2449064.270139,29.2600,-94.0642,0013,4.24,9.71,10.5954,23.5891
1993-03-17 18:59:00 UTC,2449064.290972,29.2600,-94.0642,0013,2.35,8.55,8.8671,15.3685
1993-03-17 19:29:00 UTC,2449064.311806,29.2600,-94.0642,0013,0.12,9.52,9.5208,0.7222
1993-03-17 19:59:00 UTC,2449064.332639,29.2600,-94.0642,0013,-2.88,11.05,11.4191,345.3918
1993-03-17 20:59:00 UTC,2449064.374306,29.2600,-94.0642,0013,-9.49,9.84,13.6706,316.0373
1993-03-17 21:29:00 UTC,2449064.395139,29.2600,-94.0642,0013,-12.22,10.85,16.3417,311.6015
1993-03-17 21:59:00 UTC,2449064.415972,29.2600,-94.0642,0013,-10.65,9.03,13.9629,310.2942
1993-03-17 22:29:00 UTC,2449064.436806,29.2600,-94.0642,0013,-7.72,6.70,10.2220,310.9539
1993-03-17 22:59:00 UTC,2449064.457639,29.2600,-94.0642,0013,-5.35,6.22,8.2043,319.3002
1993-03-17 23:59:00 UTC,2449064.499306,29.2600,-94.0642,0013,-0.73,2.26,2.3750,342.0991
1993-03-18 00:29:00 UTC,2449064.520139,29.2600,-94.0642,0013,2.16,2.04,2.9711,46.6366
1993-03-18 00:59:00 UTC,2449064.540972,29.2600,-94.0642,0013,3.14,1.77,3.6045,60.5903
1993-03-18 01:29:00 UTC,2449064.561806,29.2600,-94.0642,0013,4.75,0.54,4.7806,83.5142
1993-03-18 01:59:00 UTC,2449064.582639,29.2600,-94.0642,0013,4.47,-0.54,4.5025,96.8883
1993-03-18 02:59:00 UTC,2449064.624306,29.2600,-94.0642,0013,10.92,-8.15,13.6260,126.7353
1993-03-18 03:29:00 UTC,2449064.645139,29.2600,-94.0642,0013,12.96,-11.61,17.3998,131.8550
1993-03-18 03:59:00 UTC,2449064.665972,29.2600,-94.0642,0013,11.03,-14.67,18.3540,143.0614
1993-03-18 04:29:00 UTC,2449064.686806,29.2600,-94.0642,0013,5.30,-18.85,19.5809,164.2957
1993-03-18 04:59:00 UTC,2449064.707639,29.2600,-94.0642,0013,7.23,-22.41,23.5474,162.1190
1993-03-18 05:59:00 UTC,2449064.749306,29.2600,-94.0642,0013,10.75,-20.97,23.5649,152.8586
1993-03-18 06:29:00 UTC,2449064.770139,29.2600,-94.0642,0013,12.34,-19.79,23.3221,148.0545
1993-03-18 06:59:00 UTC,2449064.790972,29.2600,-94.0642,0013,12.53,-21.30,24.7122,149.5333
1993-03-18 07:29:00 UTC,2449064.811806,29.2600,-94.0642,0013,16.32,-21.59,27.0642,142.9142
1993-03-18 07:59:00 UTC,2449064.832639,29.2600,-94.0642,0013,14.08,-16.71,21.8511,139.8822
1993-03-18 08:59:00 UTC,2449064.874306,29.2600,-94.0642,0013,10.44,-10.52,14.8211,135.2187
1993-03-18 09:29:00 UTC,2449064.895139,29.2600,-94.0642,0013,10.26,-14.21,17.5269,144.1697
1993-03-18 09:59:00 UTC,2449064.915972,29.2600,-94.0642,0013,12.64,-18.50,22.4058,145.6574
1993-03-18 10:29:00 UTC,2449064.936806,29.2600,-94.0642,0013,12.63,-22.62,25.9072,150.8230
1993-03-18 10:59:00 UTC,2449064.957639,29.2600,-94.0642,0013,17.09,-20.65,26.8047,140.3887
1993-03-18 11:59:00 UTC,2449064.999306,29.2600,-94.0642,0013,18.96,-13.17,23.0853,124.7846
1993-03-18 12:29:00 UTC,2449065.020139,29.2600,-94.0642,0013,17.16,-10.42,20.0759,121.2672
1993-03-18 12:59:00 UTC,2449065.040972,29.2600,-94.0642,0013,18.54,-10.73,21.4211,120.0601
1993-03-18 13:29:00 UTC,2449065.061806,29.2600,-94.0642,0013,16.94,-14.72,22.4420,130.9890
1993-03-18 13:59:00 UTC,2449065.082639,29.2600,-94.0642,0013,14.64,-10.63,18.0922,125.9831
1993-03-18 14:59:00 UTC,2449065.124306,29.2600,-94.0642,0013,15.37,-14.20,20.9255,132.7341
1993-03-18 15:29:00 UTC,2449065.145139,29.2600,-94.0642,0013,16.78,-10.19,19.6317,121.2691
1993-03-18 15:59:00 UTC,2449065.165972,29.2600,-94.0642,0013,18.02,-11.09,21.1591,121.6093
1993-03-18 16:29:00 UTC,2449065.186806,29.2600,-94.0642,0013,18.63,-8.33,20.4075,114.0908
1993-03-18 16:59:00 UTC,2449065.207639,29.2600,-94.0642,0013,17.11,-3.20,17.4067,100.5934
1993-03-18 17:59:00 UTC,2449065.249306,29.2600,-94.0642,0013,11.09,-1.94,11.2584,99.9225
1993-03-18 18:29:00 UTC,2449065.270139,29.2600,-94.0642,0013,9.90,-1.65,10.0366,99.4623
1993-03-18 18:59:00 UTC,2449065.290972,29.2600,-94.0642,0013,11.41,-1.56,11.5161,97.7853
1993-03-18 19:29:00 UTC,2449065.311806,29.2600,-94.0642,0013,5.61,-0.02,5.6100,90.2043
1993-03-18 19:59:00 UTC,2449065.332639,29.2600,-94.0642,0013,2.94,-0.92,3.0806,107.3762
1993-03-18 20:59:00 UTC,2449065.374306,29.2600,-94.0642,0013,5.27,-11.23,12.4051,154.8603
1993-03-18 21:29:00 UTC,2449065.395139,29.2600,-94.0642,0013,5.41,-17.36,18.1834,162.6911
1993-03-18 21:59:00 UTC,2449065.415972,29.2600,-94.0642,0013,-4.23,-13.52,14.1663,197.3733
1993-03-18 22:29:00 UTC,2449065.436806,29.2600,-94.0642,0013,-4.36,-11.20,12.0187,201.2703
1993-03-18 22:59:00 UTC,2449065.457639,29.2600,-94.0642,0013,-2.28,-10.26,10.5103,192.5288
1993-03-18 23:59:00 UTC,2449065.499306,29.2600,-94.0642,0013,-3.15,-7.18,7.8406,203.6880
1993-03-19 00:29:00 UTC,2449065.520139,29.2600,-94.0642,0013,-3.49,-9.06,9.7089,201.0672
1993-03-19 00:59:00 UTC,2449065.540972,29.2600,-94.0642,0013,-3.30,-6.47,7.2630,207.0237
1993-03-19 01:29:00 UTC,2449065.561806,29.2600,-94.0642,0013,-2.71,-9.32,9.7060,196.2130
1993-03-19 01:59:00 UTC,2449065.582639,29.2600,-94.0642,0013,2.99,-12.16,12.5222,166.1857
1993-03-19 02:59:00 UTC,2449065.624306,29.2600,-94.0642,0013,4.37,-8.55,9.6021,152.9279
1993-03-19 03:29:00 UTC,2449065.645139,29.2600,-94.0642,0013,3.05,-6.05,6.7753,153.2458
1993-03-19 03:59:00 UTC,2449065.665972,29.2600,-94.0642,0013,-2.33,-5.64,6.1023,202.4465
1993-03-19 04:29:00 UTC,2449065.686806,29.2600,-94.0642,0013,-2.52,-4.12,4.8296,211.4521
1993-03-19 04:59:00 UTC,2449065.707639,29.2600,-94.0642,0013,-0.55,-7.28,7.3007,184.3205
1993-03-19 05:59:00 UTC,2449065.749306,29.2600,-94.0642,0013,6.40,-12.22,13.7945,152.3575
1993-03-19 06:29:00 UTC,2449065.770139,29.2600,-94.0642,0013,6.21,-12.00,13.5116,152.6384
1993-03-19 06:59:00 UTC,2449065.790972,29.2600,-94.0642,0013,3.75,-14.12,14.6095,165.1267
1993-03-19 07:29:00 UTC,2449065.811806,29.2600,-94.0642,0013,4.11,-14.65,15.2156,164.3287
1993-03-19 07:59:00 UTC,2449065.832639,29.2600,-94.0642,0013,6.27,-15.22,16.4609,157.6104
1993-03-19 08:59:00 UTC,2449065.874306,29.2600,-94.0642,0013,5.15,-18.14,18.8569,164.1506
1993-03-19 09:29:00 UTC,2449065.895139,29.2600,-94.0642,0013,10.95,-18.38,21.3946,149.2153
1993-03-19 09:59:00 UTC,2449065.915972,29.2600,-94.0642,0013,10.89,-19.07,21.9604,150.2713
1993-03-19 10:29:00 UTC,2449065.936806,29.2600,-94.0642,0013,10.29,-13.81,17.2221,143.3098
1993-03-19 10:59:00 UTC,2449065.957639,29.2600,-94.0642,0013,11.62,-12.11,16.7832,136.1829
1993-03-19 11:59:00 UTC,2449065.999306,29.2600,-94.0642,0013,12.53,-9.37,15.6460,126.7893
1993-03-19 12:29:00 UTC,2449066.020139,29.2600,-94.0642,0013,8.99,-9.80,13.2989,137.4684
1993-03-19 12:59:00 UTC,2449066.040972,29.2600,-94.0642,0013,9.77,-8.76,13.1221,131.8801
1993-03-19 13:29:00 UTC,2449066.061806,29.2600,-94.0642,0013,7.71,-1.48,7.8508,100.8662
1993-03-19 13:59:00 UTC,2449066.082639,29.2600,-94.0642,0013,10.17,-0.77,10.1991,94.3298
1993-03-19 14:59:00 UTC,2449066.124306,29.2600,-94.0642,0013,11.19,2.16,11.3966,79.0746
1993-03-19 15:29:00 UTC,2449066.145139,29.2600,-94.0642,0013,11.35,1.55,11.4553,82.2236
1993-03-19 15:59:00 UTC,2449066.165972,29.2600,-94.0642,0013,9.19,0.81,9.2256,84.9630
1993-03-19 16:29:00 UTC,2449066.186806,29.2600,-94.0642,0013,14.24,2.64,14.4827,79.4970
1993-03-19 16:59:00 UTC,2449066.207639,29.2600,-94.0642,0013,14.14,1.34,14.2034,84.5864
1993-03-19 17:59:00 UTC,2449066.249306,29.2600,-94.0642,0013,12.62,-1.55,12.7148,97.0020
1993-03-19 18:29:00 UTC,2449066.270139,29.2600,-94.0642,0013,12.55,8.18,14.9805,56.9040
1993-03-19 18:59:00 UTC,2449066.290972,29.2600,-94.0642,0013,9.73,5.28,11.0703,61.5135
1993-03-19 19:29:00 UTC,2449066.311806,29.2600,-94.0642,0013,9.18,6.03,10.9833,56.7006
1993-03-19 19:59:00 UTC,2449066.332639,29.2600,-94.0642,0013,6.50,6.43,9.1430,45.3102
1993-03-19 20:59:00 UTC,2449066.374306,29.2600,-94.0642,0013,-1.35,2.11,2.5049,327.3885
1993-03-19 21:29:00 UTC,2449066.395139,29.2600,-94.0642,0013,-3.21,1.35,3.4823,292.8097
1993-03-19 21:59:00 UTC,2449066.415972,29.2600,-94.0642,0013,-6.57,2.00,6.8677,286.9310
1993-03-19 22:29:00 UTC,2449066.436806,29.2600,-94.0642,0013,-8.23,2.53,8.6101,287.0881
1993-03-19 22:59:00 UTC,2449066.457639,29.2600,-94.0642,0013,-7.54,3.78,8.4345,296.6258
1993-03-19 23:59:00 UTC,2449066.499306,29.2600,-94.0642,0013,-10.03,2.66,10.3767,284.8532
1993-03-20 00:29:00 UTC,2449066.520139,29.2600,-94.0642,0013,-9.04,1.08,9.1043,276.8128
1993-03-20 00:59:00 UTC,2449066.540972,29.2600,-94.0642,0013,-9.62,1.43,9.7257,278.4550
1993-03-20 01:29:00 UTC,2449066.561806,29.2600,-94.0642,0013,-6.11,0.06,6.1103,270.5626
1993-03-20 01:59:00 UTC,2449066.582639,29.2600,-94.0642,0013,-7.31,0.15,7.3115,271.1755
1993-03-20 02:59:00 UTC,2449066.624306,29.2600,-94.0642,0013,-5.45,-3.10,6.2700,240.3685
1993-03-20 03:29:00 UTC,2449066.645139,29.2600,-94.0642,0013,-6.64,-4.31,7.9162,237.0125
1993-03-20 03:59:00 UTC,2449066.665972,29.2600,-94.0642,0013,-8.53,-4.07,9.4512,244.4924
1993-03-20 04:29:00 UTC,2449066.686806,29.2600,-94.0642,0013,-9.91,-5.07,11.1316,242.9055
1993-03-20 04:59:00 UTC,2449066.707639,29.2600,-94.0642,0013,-5.36,-7.22,8.9921,216.5895
1993-03-20 05:59:00 UTC,2449066.749306,29.2600,-94.0642,0013,8.41,-14.78,17.0052,150.3596
1993-03-20 06:29:00 UTC,2449066.770139,29.2600,-94.0642,0013,6.38,-12.42,13.9628,152.8110
1993-03-20 06:59:00 UTC,2449066.790972,29.2600,-94.0642,0013,11.15,-12.98,17.1115,139.3370
1993-03-20 07:29:00 UTC,2449066.811806,29.2600,-94.0642,0013,12.37,-14.17,18.8097,138.8800
1993-03-20 07:59:00 UTC,2449066.832639,29.2600,-94.0642,0013,16.13,-18.77,24.7485,139.3259
1993-03-20 08:59:00 UTC,2449066.874306,29.2600,-94.0642,0013,15.39,-28.54,32.4250,151.6645
1993-03-20 09:29:00 UTC,2449066.895139,29.2600,-94.0642,0013,11.90,-25.67,28.2941,155.1287
1993-03-20 09:59:00 UTC,2449066.915972,29.2600,-94.0642,0013,13.36,-20.97,24.8642,147.4988
1993-03-20 10:29:00 UTC,2449066.936806,29.2600,-94.0642,0013,15.21,-23.01,27.5827,146.5346
1993-03-20 10:59:00 UTC,2449066.957639,29.2600,-94.0642,0013,17.86,-22.41,28.6564,141.4464
1993-03-20 11:59:00 UTC,2449066.999306,29.2600,-94.0642,0013,11.18,-12.58,16.8300,138.3721
1993-03-20 12:29:00 UTC,2449067.020139,29.2600,-94.0642,0013,9.04,-11.71,14.7934,142.3322
1993-03-20 12:59:00 UTC,2449067.040972,29.2600,-94.0642,0013,9.65,-15.67,18.4030,148.3741
1993-03-20 13:29:00 UTC,2449067.061806,29.2600,-94.0642,0013,10.74,-21.17,23.7385,153.1003
1993-03-20 13:59:00 UTC,2449067.082639,29.2600,-94.0642,0013,12.52,-21.50,24.8797,149.7867
1993-03-20 14:59:00 UTC,2449067.124306,29.2600,-94.0642,0013,16.09,-14.05,21.3610,131.1279
1993-03-20 15:29:00 UTC,2449067.145139,29.2600,-94.0642,0013,15.37,-11.59,19.2501,127.0187
1993-03-20 15:59:00 UTC,2449067.165972,29.2600,-94.0642,0013,15.38,-8.78,17.7097,119.7208
1993-03-20 16:29:00 UTC,2449067.186806,29.2600,-94.0642,0013,15.31,-12.39,19.6954,128.9824
1993-03-20 16:59:00 UTC,2449067.207639,29.2600,-94.0642,0013,15.35,-9.18,17.8856,120.8813
1993-03-20 17:59:00 UTC,2449067.249306,29.2600,-94.0642,0013,11.90,-11.13,16.2938,133.0850
1993-03-20 18:29:00 UTC,2449067.270139,29.2600,-94.0642,0013,12.18,-11.35,16.6486,132.9798
1993-03-20 18:59:00 UTC,2449067.290972,29.2600,-94.0642,0013,12.98,-14.02,19.1060,137.2059
1993-03-20 19:29:00 UTC,2449067.311806,29.2600,-94.0642,0013,10.29,-13.81,17.2221,143.3098
1993-03-20 19:59:00 UTC,2449067.332639,29.2600,-94.0642,0013,12.14,-14.56,18.9571,140.1789
1993-03-20 20:59:00 UTC,2449067.374306,29.2600,-94.0642,0013,5.80,-9.56,11.1818,148.7550
1993-03-20 21:29:00 UTC,2449067.395139,29.2600,-94.0642,0013,3.57,-9.80,10.4300,159.9840
1993-03-20 21:59:00 UTC,2449067.415972,29.2600,-94.0642,0013,1.64,-10.15,10.2816,170.8217
1993-03-20 22:29:00 UTC,2449067.436806,29.2600,-94.0642,0013,1.96,-8.57,8.7913,167.1177
1993-03-20 22:59:00 UTC,2449067.457639,29.2600,-94.0642,0013,-3.21,-10.59,11.0658,196.8629
1993-03-20 23:59:00 UTC,2449067.499306,29.2600,-94.0642,0013,-4.02,-10.73,11.4583,200.5385
1993-03-21 00:29:00 UTC,2449067.520139,29.2600,-94.0642,0013,-3.94,-9.73,10.4975,202.0447
1993-03-21 00:59:00 UTC,2449067.540972,29.2600,-94.0642,0013,-2.71,-9.32,9.7060,196.2130
1993-03-21 01:29:00 UTC,2449067.561806,29.2600,-94.0642,0013,-2.05,-4.56,4.9996,204.2068
1993-03-21 01:59:00 UTC,2449067.582639,29.2600,-94.0642,0013,-0.27,-0.88,0.9205,197.0570
1993-03-21 02:59:00 UTC,2449067.624306,29.2600,-94.0642,0013,3.22,0.16,3.2240,87.1553
1993-03-21 03:29:00 UTC,2449067.645139,29.2600,-94.0642,0013,-0.11,6.53,6.5309,359.0349
1993-03-21 03:59:00 UTC,2449067.665972,29.2600,-94.0642,0013,-3.73,5.10,6.3185,323.8193
1993-03-21 04:29:00 UTC,2449067.686806,29.2600,-94.0642,0013,-3.90,5.51,6.7506,324.7090
1993-03-21 04:59:00 UTC,2449067.707639,29.2600,-94.0642,0013,-3.66,3.29,4.9214,311.9526
1993-03-21 05:59:00 UTC,2449067.749306,29.2600,-94.0642,0013,-4.19,1.62,4.4923,291.1382
1993-03-21 06:29:00 UTC,2449067.770139,29.2600,-94.0642,0013,-5.68,-0.87,5.7462,261.2917
1993-03-21 06:59:00 UTC,2449067.790972,29.2600,-94.0642,0013,-9.67,-1.88,9.8511,258.9980
1993-03-21 07:29:00 UTC,2449067.811806,29.2600,-94.0642,0013,-10.28,-3.34,10.8090,252.0009
1993-03-21 07:59:00 UTC,2449067.832639,29.2600,-94.0642,0013,-12.70,-4.86,13.5981,249.0593
1993-03-21 08:59:00 UTC,2449067.874306,29.2600,-94.0642,0013,-12.38,-11.20,16.6944,227.8648
1993-03-21 09:29:00 UTC,2449067.895139,29.2600,-94.0642,0013,-12.63,-14.49,19.2218,221.0766
1993-03-21 09:59:00 UTC,2449067.915972,29.2600,-94.0642,0013,-12.44,-14.70,19.2573,220.2399
1993-03-21 10:29:00 UTC,2449067.936806,29.2600,-94.0642,0013,-14.52,-14.35,20.4145,225.3374
1993-03-21 10:59:00 UTC,2449067.957639,29.2600,-94.0642,0013,-9.68,-14.01,17.0289,214.6420
1993-03-21 11:59:00 UTC,2449067.999306,29.2600,-94.0642,0013,-9.59,-11.41,14.9049,220.0468
1993-03-21 12:29:00 UTC,2449068.020139,29.2600,-94.0642,0013,-11.07,-11.10,15.6766,224.9225
1993-03-21 12:59:00 UTC,2449068.040972,29.2600,-94.0642,0013,-9.69,-10.10,13.9966,223.8132
1993-03-21 13:29:00 UTC,2449068.061806,29.2600,-94.0642,0013,-5.27,-7.42,9.1011,215.3840
1993-03-21 13:59:00 UTC,2449068.082639,29.2600,-94.0642,0013,-4.54,-5.67,7.2636,218.6845
1993-03-21 14:59:00 UTC,2449068.124306,29.2600,-94.0642,0013,-0.07,-0.90,0.9027,184.4474
1993-03-21 15:29:00 UTC,2449068.145139,29.2600,-94.0642,0013,8.09,0.89,8.1388,83.7220
1993-03-21 15:59:00 UTC,2449068.165972,29.2600,-94.0642,0013,9.50,2.29,9.7721,76.4473
1993-03-21 16:29:00 UTC,2449068.186806,29.2600,-94.0642,0013,12.19,3.39,12.6526,74.4589
1993-03-21 16:59:00 UTC,2449068.207639,29.2600,-94.0642,0013,9.71,2.48,10.0217,75.6726
1993-03-21 17:59:00 UTC,2449068.249306,29.2600,-94.0642,0013,12.10,-0.51,12.1107,92.4135
1993-03-21 18:29:00 UTC,2449068.270139,29.2600,-94.0642,0013,9.63,-1.33,9.7214,97.8634
1993-03-21 18:59:00 UTC,2449068.290972,29.2600,-94.0642,0013,11.83,1.31,11.9023,83.6811
1993-03-21 19:29:00 UTC,2449068.311806,29.2600,-94.0642,0013,12.92,-1.58,13.0163,96.9721
1993-03-21 19:59:00 UTC,2449068.332639,29.2600,-94.0642,0013,13.15,-3.80,13.6880,106.1179
1993-03-21 20:59:00 UTC,2449068.374306,29.2600,-94.0642,0013,9.85,-5.06,11.0737,117.1898
1993-03-21 21:29:00 UTC,2449068.395139,29.2600,-94.0642,0013,7.72,-6.70,10.2220,130.9539
1993-03-21 21:59:00 UTC,2449068.415972,29.2600,-94.0642,0013,8.99,-9.80,13.2989,137.4684
1993-03-21 22:29:00 UTC,2449068.436806,29.2600,-94.0642,0013,9.23,-10.62,14.0704,139.0056
1993-03-21 22:59:00 UTC,2449068.457639,29.2600,-94.0642,0013,8.31,-10.86,13.6746,142.5770
1993-03-21 23:59:00 UTC,2449068.499306,29.2600,-94.0642,0013,8.37,-9.96,13.0099,139.9576
1993-03-22 00:29:00 UTC,2449068.520139,29.2600,-94.0642,0013,7.62,-8.00,11.0483,136.3936
1993-03-22 00:59:00 UTC,2449068.540972,29.2600,-94.0642,0013,7.74,-6.40,10.0433,129.5864
1993-03-22 01:29:00 UTC,2449068.561806,29.2600,-94.0642,0013,10.42,-10.82,15.0216,136.0789
1993-03-22 01:59:00 UTC,2449068.582639,29.2600,-94.0642,0013,8.19,-7.14,10.8653,131.0817
1993-03-22 02:59:00 UTC,2449068.624306,29.2600,-94.0642,0013,9.07,-6.10,10.9305,123.9227
1993-03-22 03:29:00 UTC,2449068.645139,29.2600,-94.0642,0013,7.92,-6.72,10.3868,130.3141
1993-03-22 03:59:00 UTC,2449068.665972,29.2600,-94.0642,0013,7.84,-5.10,9.3528,123.0444
1993-03-22 04:29:00 UTC,2449068.686806,29.2600,-94.0642,0013,8.49,-3.05,9.0212,109.7606
1993-03-22 04:59:00 UTC,2449068.707639,29.2600,-94.0642,0013,8.15,-1.02,8.2136,97.1337
1993-03-22 05:59:00 UTC,2449068.749306,29.2600,-94.0642,0013,14.65,-6.52,16.0354,113.9915
1993-03-22 06:29:00 UTC,2449068.770139,29.2600,-94.0642,0013,13.90,-5.86,15.0847,112.8594
1993-03-22 06:59:00 UTC,2449068.790972,29.2600,-94.0642,0013,10.85,-6.44,12.6173,120.6912
1993-03-22 07:29:00 UTC,2449068.811806,29.2600,-94.0642,0013,9.85,-5.06,11.0737,117.1898
1993-03-22 07:59:00 UTC,2449068.832639,29.2600,-94.0642,0013,6.87,-3.33,7.6345,115.8602
1993-03-22 08:59:00 UTC,2449068.874306,29.2600,-94.0642,0013,5.41,-8.03,9.6824,146.0309
1993-03-22 09:29:00 UTC,2449068.895139,29.2600,-94.0642,0013,5.43,-9.13,10.6227,149.2582
1993-03-22 09:59:00 UTC,2449068.915972,29.2600,-94.0642,0013,5.57,-9.95,11.4030,150.7599
1993-03-22 10:29:00 UTC,2449068.936806,29.2600,-94.0642,0013,3.53,-10.30,10.8881,161.0825
1993-03-22 10:59:00 UTC,2449068.957639,29.2600,-94.0642,0013,2.73,-13.04,13.3227,168.1756
1993-03-22 11:59:00 UTC,2449068.999306,29.2600,-94.0642,0013,1.48,-12.25,12.3391,173.1111
1993-03-22 12:29:00 UTC,2449069.020139,29.2600,-94.0642,0013,0.63,-11.58,11.5971,176.8859
1993-03-22 12:59:00 UTC,2449069.040972,29.2600,-94.0642,0013,0.73,-10.28,10.3059,175.9381
1993-03-22 13:29:00 UTC,2449069.061806,29.2600,-94.0642,0013,-1.40,-10.52,10.6127,187.5804
1993-03-22 13:59:00 UTC,2449069.082639,29.2600,-94.0642,0013,1.05,-8.70,8.7631,173.1183
1993-03-22 14:59:00 UTC,2449069.124306,29.2600,-94.0642,0013,0.45,-6.05,6.0667,175.7462
1993-03-22 15:29:00 UTC,2449069.145139,29.2600,-94.0642,0013,2.48,-9.71,10.0217,165.6725
1993-03-22 15:59:00 UTC,2449069.165972,29.2600,-94.0642,0013,3.53,-7.69,8.4615,155.3431
1993-03-22 16:29:00 UTC,2449069.186806,29.2600,-94.0642,0013,3.98,-7.02,8.0697,150.4489
1993-03-22 16:59:00 UTC,2449069.207639,29.2600,-94.0642,0013,5.04,-10.31,11.4760,153.9485
1993-03-22 17:59:00 UTC,2449069.249306,29.2600,-94.0642,0013,5.80,-4.15,7.1318,125.5844
1993-03-22 18:29:00 UTC,2449069.270139,29.2600,-94.0642,0013,4.84,-2.37,5.3891,116.0896
1993-03-22 18:59:00 UTC,2449069.290972,29.2600,-94.0642,0013,3.33,-5.07,6.0658,146.7029
1993-03-22 19:29:00 UTC,2449069.311806,29.2600,-94.0642,0013,4.49,-2.95,5.3724,123.3055
1993-03-22 19:59:00 UTC,2449069.332639,29.2600,-94.0642,0013,7.24,-5.06,8.8330,124.9495
1993-03-22 20:59:00 UTC,2449069.374306,29.2600,-94.0642,0013,4.80,1.14,4.9335,76.6398
1993-03-22 21:29:00 UTC,2449069.395139,29.2600,-94.0642,0013,3.18,-6.96,7.6521,155.4445
1993-03-22 21:59:00 UTC,2449069.415972,29.2600,-94.0642,0013,4.87,-7.29,8.7670,146.2555
1993-03-22 22:29:00 UTC,2449069.436806,29.2600,-94.0642,0013,-2.30,-3.94,4.5622,210.2745
1993-03-22 22:59:00 UTC,2449069.457639,29.2600,-94.0642,0013,-3.10,-3.88,4.9663,218.6238
1993-03-22 23:59:00 UTC,2449069.499306,29.2600,-94.0642,0013,-7.53,-8.06,11.0302,223.0529
1993-03-23 00:29:00 UTC,2449069.520139,29.2600,-94.0642,0013,-6.75,-8.42,10.7916,218.7179
1993-03-23 00:59:00 UTC,2449069.540972,29.2600,-94.0642,0013,-5.06,-7.24,8.8330,214.9495
1993-03-23 01:29:00 UTC,2449069.561806,29.2600,-94.0642,0013,-5.87,-8.68,10.4785,214.0692
1993-03-23 01:59:00 UTC,2449069.582639,29.2600,-94.0642,0013,-3.32,-9.48,10.0445,199.3008
1993-03-23 02:59:00 UTC,2449069.624306,29.2600,-94.0642,0013,-1.46,-4.70,4.9215,197.2568
1993-03-23 03:29:00 UTC,2449069.645139,29.2600,-94.0642,0013,1.63,-4.94,5.2020,161.7392
1993-03-23 03:59:00 UTC,2449069.665972,29.2600,-94.0642,0013,1.80,-2.74,3.2784,146.6977
1993-03-23 04:29:00 UTC,2449069.686806,29.2600,-94.0642,0013,2.23,-2.37,3.2542,136.7432
1993-03-23 04:59:00 UTC,2449069.707639,29.2600,-94.0642,0013,2.59,-0.20,2.5977,94.4156
1993-03-23 05:59:00 UTC,2449069.749306,29.2600,-94.0642,0013,5.46,-2.12,5.8571,111.2201
1993-03-23 06:29:00 UTC,2449069.770139,29.2600,-94.0642,0013,6.35,-2.18,6.7138,108.9477
1993-03-23 06:59:00 UTC,2449069.790972,29.2600,-94.0642,0013,6.23,-3.78,7.2871,121.2469
1993-03-23 07:29:00 UTC,2449069.811806,29.2600,-94.0642,0013,2.23,-2.37,3.2542,136.7432
1993-03-23 07:59:00 UTC,2449069.832639,29.2600,-94.0642,0013,0.84,-0.77,1.1395,132.5104
1993-03-23 08:59:00 UTC,2449069.874306,29.2600,-94.0642,0013,4.86,-4.68,6.7470,133.9191
1993-03-23 09:29:00 UTC,2449069.895139,29.2600,-94.0642,0013,2.13,-6.28,6.6314,161.2645
1993-03-23 09:59:00 UTC,2449069.915972,29.2600,-94.0642,0013,3.13,-5.05,5.9413,148.2093
1993-03-23 10:29:00 UTC,2449069.936806,29.2600,-94.0642,0013,3.03,-3.74,4.8134,140.9870
1993-03-23 10:59:00 UTC,2449069.957639,29.2600,-94.0642,0013,1.67,-4.44,4.7437,159.3874
1993-03-23 11:59:00 UTC,2449069.999306,29.2600,-94.0642,0013,1.82,-5.15,5.4621,160.5367
1993-03-23 12:29:00 UTC,2449070.020139,29.2600,-94.0642,0013,2.90,-8.04,8.5470,160.1658
1993-03-23 12:59:00 UTC,2449070.040972,29.2600,-94.0642,0013,1.89,-9.47,9.6568,168.7133
1993-03-23 13:29:00 UTC,2449070.061806,29.2600,-94.0642,0013,1.29,-8.12,8.2218,170.9730
1993-03-23 13:59:00 UTC,2449070.082639,29.2600,-94.0642,0013,1.67,-4.44,4.7437,159.3874
1993-03-23 14:59:00 UTC,2449070.124306,29.2600,-94.0642,0013,6.06,-6.07,8.5772,135.0472
1993-03-23 15:29:00 UTC,2449070.145139,29.2600,-94.0642,0013,5.12,-3.90,6.4362,127.2972
1993-03-23 15:59:00 UTC,2449070.165972,29.2600,-94.0642,0013,1.01,-1.18,1.5532,139.4387
1993-03-23 16:29:00 UTC,2449070.186806,29.2600,-94.0642,0013,3.45,3.25,4.7397,46.7098
1993-03-23 16:59:00 UTC,2449070.207639,29.2600,-94.0642,0013,2.20,3.95,4.5213,29.1161
1993-03-23 17:59:00 UTC,2449070.249306,29.2600,-94.0642,0013,0.41,5.38,5.3956,4.3580
1993-03-23 18:29:00 UTC,2449070.270139,29.2600,-94.0642,0013,2.91,6.70,7.3047,23.4767
1993-03-23 18:59:00 UTC,2449070.290972,29.2600,-94.0642,0013,5.83,8.18,10.0450,35.4780
1993-03-23 19:29:00 UTC,2449070.311806,29.2600,-94.0642,0013,3.93,5.52,6.7761,35.4492
1993-03-23 19:59:00 UTC,2449070.332639,29.2600,-94.0642,0013,5.74,9.60,11.1852,30.8759
1993-03-23 20:59:00 UTC,2449070.374306,29.2600,-94.0642,0013,2.66,3.31,4.2464,38.7862
1993-03-23 21:29:00 UTC,2449070.395139,29.2600,-94.0642,0013,0.15,4.70,4.7024,1.8280
1993-03-23 21:59:00 UTC,2449070.415972,29.2600,-94.0642,0013,0.62,2.96,3.0242,11.8301
1993-03-23 22:29:00 UTC,2449070.436806,29.2600,-94.0642,0013,-0.65,0.75,0.9925,319.0856
1993-03-23 22:59:00 UTC,2449070.457639,29.2600,-94.0642,0013,-2.01,-0.05,2.0106,268.5750
1993-03-23 23:59:00 UTC,2449070.499306,29.2600,-94.0642,0013,-4.77,-0.74,4.8271,261.1816
1993-03-24 00:29:00 UTC,2449070.520139,29.2600,-94.0642,0013,-4.57,-3.37,5.6782,233.5943
1993-03-24 00:59:00 UTC,2449070.540972,29.2600,-94.0642,0013,-5.09,-5.03,7.1560,225.3397
1993-03-24 01:29:00 UTC,2449070.561806,29.2600,-94.0642,0013,-5.32,-8.02,9.6241,213.5580
1993-03-24 01:59:00 UTC,2449070.582639,29.2600,-94.0642,0013,-4.86,-7.25,8.7282,213.8357
1993-03-24 02:59:00 UTC,2449070.624306,29.2600,-94.0642,0013,-4.14,-5.70,7.0448,215.9915
1993-03-24 03:29:00 UTC,2449070.645139,29.2600,-94.0642,0013,-0.72,-4.26,4.3204,189.5931
1993-03-24 03:59:00 UTC,2449070.665972,29.2600,-94.0642,0013,-1.49,-2.49,2.9018,210.8960
1993-03-24 04:29:00 UTC,2449070.686806,29.2600,-94.0642,0013,0.02,-2.41,2.4101,179.5245
1993-03-24 04:59:00 UTC,2449070.707639,29.2600,-94.0642,0013,0.74,0.55,0.9220,53.3787
1993-03-24 05:59:00 UTC,2449070.749306,29.2600,-94.0642,0013,3.60,5.14,6.2753,35.0070
1993-03-24 06:29:00 UTC,2449070.770139,29.2600,-94.0642,0013,4.16,6.00,7.3011,34.7349
1993-03-24 06:59:00 UTC,2449070.790972,29.2600,-94.0642,0013,3.16,7.38,8.0281,23.1798
1993-03-24 07:29:00 UTC,2449070.811806,29.2600,-94.0642,0013,3.47,6.06,6.9832,29.7958
1993-03-24 07:59:00 UTC,2449070.832639,29.2600,-94.0642,0013,3.68,6.24,7.2443,30.5297
1993-03-24 08:59:00 UTC,2449070.874306,29.2600,-94.0642,0013,4.95,3.14,5.8619,57.6113
1993-03-24 09:29:00 UTC,2449070.895139,29.2600,-94.0642,0013,3.82,1.42,4.0754,69.6085
1993-03-24 09:59:00 UTC,2449070.915972,29.2600,-94.0642,0013,2.99,2.38,3.8216,51.4807